Location: Nairn
(57.5833°N, 3.8667°W)
Time: 08:18:19
(UTC+00:00)

Vanguard 1 - Pass Details

Date: 28 November 2020
Orbit: 649 x 3834 km, 34.3° (Epoch: 15 January)

Event Time Altitude Azimuth Distance (km) Brightness Sun altitude
Rises 08:14:13 0° 238° (WSW) 4,291 13.2 -2.2°
Reaches altitude 10° 08:17:38 10° 222° (SW) 3,731 13.0 -1.9°
Maximum altitude 08:24:28 21° 178° (S) 3,734 13.7 -1.2°
Drops below altitude 10° 08:34:14 10° 139° (SE) 5,553 16.1 -0.2°
Sets 08:41:09 0° 127° (SE) 7,145 17.2 0.5°
